TimeBST,TemperatureF,Dew PointF,Humidity,Sea Level PressureIn,VisibilityMPH,Wind Direction,Wind SpeedMPH,Gust SpeedMPH,PrecipitationIn,Events,Conditions,WindDirDegrees,DateUTC
12:20 AM,60.8,57.2,88,30.09,6.2,West,9.2,-,N/A,,Mostly Cloudy,280,2013-06-28 23:20:00
12:50 AM,62,57,78,30.10,18,West,8.1,,,,Partly Cloudy,270,2013-06-28 23:50:00
12:50 AM,60.8,57.2,88,30.09,6.2,West,9.2,-,N/A,,Mostly Cloudy,270,2013-06-28 23:50:00
1:20 AM,60.8,57.2,88,30.09,6.2,West,9.2,-,N/A,,Mostly Cloudy,280,2013-06-29 00:20:00
1:50 AM,60.8,57.2,88,30.09,6.2,WNW,4.6,-,N/A,,Mostly Cloudy,300,2013-06-29 00:50:00
2:20 AM,60.8,57.2,88,30.09,6.2,NW,6.9,-,N/A,,Scattered Clouds,320,2013-06-29 01:20:00
2:50 AM,60.8,55.4,82,30.12,6.2,NNW,9.2,-,N/A,,Scattered Clouds,330,2013-06-29 01:50:00
3:20 AM,60.8,55.4,82,30.12,6.2,NNW,5.8,-,N/A,,Partly Cloudy,330,2013-06-29 02:20:00
3:50 AM,59,53,73,30.12,19,NNW,8.1,,,,Scattered Clouds,330,2013-06-29 02:50:00
3:50 AM,59.0,53.6,82,30.12,6.2,NW,9.2,-,N/A,,Scattered Clouds,320,2013-06-29 02:50:00
4:20 AM,59.0,51.8,77,30.12,6.2,NW,9.2,-,N/A,,Partly Cloudy,310,2013-06-29 03:20:00
4:50 AM,57.2,51.8,82,30.12,6.2,NW,8.1,-,N/A,,Partly Cloudy,310,2013-06-29 03:50:00
5:20 AM,57.2,51.8,82,30.15,-9999.0,NW,8.1,-,N/A,,Clear,320,2013-06-29 04:20:00
5:50 AM,55.4,50.0,82,30.15,-9999.0,NNW,10.4,-,N/A,,Clear,330,2013-06-29 04:50:00
6:20 AM,55.4,46.4,72,30.15,-9999.0,NNW,10.4,-,N/A,,Clear,330,2013-06-29 05:20:00
6:50 AM,56,45,56,30.18,13,NW,9.2,,,,,320,2013-06-29 05:50:00
6:50 AM,55.4,46.4,72,30.18,-9999.0,NNW,9.2,-,N/A,,Clear,330,2013-06-29 05:50:00
7:20 AM,55.4,46.4,72,30.18,-9999.0,NW,10.4,-,N/A,,Clear,320,2013-06-29 06:20:00
7:50 AM,57.2,46.4,67,30.18,-9999.0,NW,10.4,-,N/A,,Clear,320,2013-06-29 06:50:00
8:20 AM,57.2,46.4,67,30.21,-9999.0,NNW,10.4,-,N/A,,Clear,340,2013-06-29 07:20:00
8:50 AM,57.2,46.4,67,30.21,-9999.0,NNW,9.2,-,N/A,,Clear,330,2013-06-29 07:50:00
9:20 AM,59.0,44.6,59,30.21,6.2,NNW,9.2,-,N/A,,Partly Cloudy,340,2013-06-29 08:20:00
9:50 AM,61,44,42,30.22,17,NNW,9.2,,,,Scattered Clouds,330,2013-06-29 08:50:00
9:50 AM,60.8,46.4,59,30.21,6.2,North,10.4,-,N/A,,Partly Cloudy,360,2013-06-29 08:50:00
10:20 AM,60.8,44.6,55,30.21,6.2,North,8.1,-,N/A,,Partly Cloudy,350,2013-06-29 09:20:00
10:50 AM,62.6,44.6,52,30.21,6.2,NNW,8.1,-,N/A,,Partly Cloudy,330,2013-06-29 09:50:00
11:20 AM,62.6,44.6,52,30.24,6.2,NW,11.5,-,N/A,,Partly Cloudy,320,2013-06-29 10:20:00
11:50 AM,64.4,46.4,52,30.24,6.2,NNW,10.4,-,N/A,,Partly Cloudy,330,2013-06-29 10:50:00
12:20 PM,64.4,46.4,52,30.24,6.2,NW,9.2,-,N/A,,Partly Cloudy,320,2013-06-29 11:20:00
12:50 PM,67,46,35,30.25,19,NW,10.4,,,,Scattered Clouds,320,2013-06-29 11:50:00
12:50 PM,64.4,46.4,52,30.24,6.2,NW,8.1,-,N/A,,Partly Cloudy,320,2013-06-29 11:50:00
1:20 PM,66.2,46.4,49,30.24,6.2,NW,9.2,-,N/A,,Partly Cloudy,310,2013-06-29 12:20:00
1:50 PM,68.0,46.4,46,30.24,6.2,NNW,8.1,-,N/A,,Partly Cloudy,340,2013-06-29 12:50:00
2:20 PM,68.0,46.4,46,30.24,-9999.0,NW,8.1,-,N/A,,Clear,310,2013-06-29 13:20:00
2:50 PM,69.8,46.4,43,30.24,6.2,NW,6.9,-,N/A,,Partly Cloudy,320,2013-06-29 13:50:00
3:20 PM,69.8,44.6,40,30.24,6.2,NW,9.2,-,N/A,,Partly Cloudy,320,2013-06-29 14:20:00
3:50 PM,69,43,28,30.25,28,NW,10.4,,,,Scattered Clouds,320,2013-06-29 14:50:00
3:50 PM,69.8,44.6,40,30.24,-9999.0,NW,10.4,-,N/A,,Clear,320,2013-06-29 14:50:00
4:20 PM,69.8,46.4,43,30.24,-9999.0,NW,6.9,-,N/A,,Clear,310,2013-06-29 15:20:00
4:50 PM,69.8,46.4,43,30.24,-9999.0,NW,8.1,-,N/A,,Clear,320,2013-06-29 15:50:00
5:20 PM,71.6,46.4,41,30.24,-9999.0,WNW,8.1,-,N/A,,Clear,300,2013-06-29 16:20:00
5:50 PM,71.6,46.4,41,30.24,-9999.0,NW,4.6,-,N/A,,Clear,310,2013-06-29 16:50:00
6:20 PM,69.8,46.4,43,30.24,-9999.0,NW,6.9,-,N/A,,Clear,320,2013-06-29 17:20:00
6:50 PM,71,46,30,30.24,16,NW,6.9,,,,Mostly Cloudy,310,2013-06-29 17:50:00
6:50 PM,69.8,46.4,43,30.24,-9999.0,NW,5.8,-,N/A,,Clear,310,2013-06-29 17:50:00
7:20 PM,69.8,46.4,43,30.24,-9999.0,WNW,4.6,-,N/A,,Clear,290,2013-06-29 18:20:00
7:50 PM,69.8,46.4,43,30.24,-9999.0,NW,6.9,-,N/A,,Clear,310,2013-06-29 18:50:00
8:20 PM,69.8,46.4,43,30.24,-9999.0,NW,5.8,-,N/A,,Clear,310,2013-06-29 19:20:00
8:50 PM,68.0,46.4,46,30.24,-9999.0,NW,3.5,-,N/A,,Clear,310,2013-06-29 19:50:00
9:20 PM,66.2,48.2,52,30.24,-9999.0,WNW,4.6,-,N/A,,Clear,290,2013-06-29 20:20:00
9:50 PM,68,46,35,30.25,22,West,6.9,,,,Overcast,260,2013-06-29 20:50:00
9:50 PM,66.2,48.2,52,30.24,-9999.0,West,8.1,-,N/A,,Clear,270,2013-06-29 20:50:00
10:20 PM,66.2,53.6,64,30.24,6.2,West,9.2,-,N/A,,Mostly Cloudy,280,2013-06-29 21:20:00
10:50 PM,64.4,55.4,73,30.24,6.2,West,9.2,-,N/A,,Mostly Cloudy,280,2013-06-29 21:50:00
11:20 PM,64.4,55.4,73,30.24,6.2,West,9.2,-,N/A,,Mostly Cloudy,270,2013-06-29 22:20:00
11:50 PM,64.4,57.2,77,30.24,6.2,West,10.4,-,N/A,,Mostly Cloudy,270,2013-06-29 22:50:00